Regional Weather Roundup
Issued by NWS Charleston, SC

Current Version | Previous Version | Graphics & Text | Print | Product List | Glossary On
Versions: 1 2 3 4 5 6 7 8 9 10 11 12 13 14 15 16 17 18 19 20 21 22 23 24 25 26 27 28 29 30 31 32 33 34 35 36 37 38 39 40 41 42 43 44 45 46 47 48 49 50
730
ASUS42 KCHS 261613
RWRCHS

REGIONAL WEATHER ROUNDUP
NATIONAL WEATHER SERVICE CHARLESTON SC
1200 PM EDT THU MAY 26 2016

NOTE: "FAIR" INDICATES FEW OR NO CLOUDS BELOW 12,000 FEET WITH NO
SIGNIFICANT WEATHER AND/OR OBSTRUCTIONS TO VISIBILITY.

NOT ALL STATIONS ARE QUALITY CONTROLLED. USE DATA WITH CAUTION...
ESPECIALLY DEWPOINT OBSERVATIONS.

SCZ027-030-031-034>040-042>050-261700-
...SOUTHEAST SOUTH CAROLINA...

CITY           SKY/WX    TMP DP  RH WIND       PRES   REMARKS
N CHARLESTON   MOSUNNY   83  62  49 SW5       30.21S
WATERFRONT PRK   N/A     78  67  69 S7        30.19S
MOUNT PLEASANT FAIR      81  66  61 SE8       30.21S
JOHNS ISLAND   FAIR      81  66  61 SE9       30.22S
PINOPOLIS        N/A     84  64  51 VRB3      30.12S
MONCKS CORNER  FAIR      81  57  44 CALM      30.21S
SUMMERVILLE    NOT AVBL
BEAUFORT MCAS  MOSUNNY   84  64  50 SE5       30.21S
BEAUFORT ARPT  FAIR      81  61  50 S5        30.21F
HILTON HEAD IS SUNNY     86  66  51 S9        30.22F
WALTERBORO     SUNNY     84  63  48 S3        30.21F
ALLENDALE      FAIR      82  64  54 VRB5      30.19F

...SOUTHERN MIDLANDS AND PEE DEE...

CITY           SKY/WX    TMP DP  RH WIND       PRES   REMARKS
GEORGETOWN     NOT AVBL
KINGSTREE      FAIR      82  63  51 SW6       30.20F
ORANGEBURG     SUNNY     83  62  49 S8        30.20F
BARNWELL       FAIR      88  64  45 W5        30.20F
AIKEN          PTSUNNY   81  61  50 SW5       30.23S
MANNING        FAIR      81  63  54 SW7       30.20F
COLUMBIA       MOSUNNY   86  60  41 SW9       30.18S
SUMTER         SUNNY     83  64  52 W7        30.17F
FLORENCE       SUNNY     83  66  56 SW8       30.19F
MYRTLE BEACH   MOSUNNY   82  63  51 S15       30.23S
N MYRTLE BEACH SUNNY     79  67  66 S14       30.21S

$$

GAZ063-065-086>088-099>101-113>116-118-119-134>141-150-261700-
...SOUTHEAST GEORGIA...

CITY           SKY/WX    TMP DP  RH WIND       PRES   REMARKS
SAVANNAH ARPT  MOSUNNY   84  60  44 VRB5      30.20F
HUNTER AAF     SUNNY     83  66  57 S3        30.18S
FORT STEWART   SUNNY     83  62  49 VRB3      30.18F
STATESBORO     SUNNY     84  66  54 SW6       30.20F
SYLVANIA       SUNNY     85  65  51 S5        30.21F
CLAXTON        FAIR      84  66  54 CALM      30.20F

...CSRA...CENTRAL AND FAR SOUTHEAST GEORGIA...

CITY           SKY/WX    TMP DP  RH WIND       PRES   REMARKS
THOMSON        MOSUNNY   85  67  55 CALM      30.23S
AUGUSTA-BUSH   MOSUNNY   84  63  49 S8        30.18F
AUGUSTA-DANIEL MOSUNNY   82  61  48 SW6       30.20S
SWAINSBORO     FAIR      82  57  42 S7        30.21S
VIDALIA        SUNNY     82  61  47 S6        30.20F
EASTMAN        PTSUNNY   82  62  50 SW5       30.23S
HAZLEHURST     FAIR      85  58  39 CALM      30.19F
ALMA           SUNNY     84  61  45 VRB3      30.20S
WAYCROSS       SUNNY     83  63  51 E7        30.20S
JESUP          FAIR      81  61  50 CALM      30.20F
BAXLEY         FAIR      84  61  45 SW8       30.19F
BRUNSWICK      SUNNY     86  63  45 E7        30.21S
SAINT SIMONS   SUNNY     80  64  58 SE7       30.20S

$$

SCZ027-028-034-036>038-045-046-048>050-GAZ119-141-261700-
...LAKE AND SUPPLEMENTAL COASTAL OBSERVATIONS...

STATION/POSITION TIME  TEMP    WIND        PRES    WAVE   SWELL
                       AIR SEA DIR/SP/G            HT/PER HT/PER/DIR
                 (UTC) (F)     (DEG/KT/KT) (MB)    (FT/S) (FT/S/D)
WINYAH BAY       1445   79     170/  7     1022.0
LAKE MURRAY      1500   80     170/  4/  5 1021.7F
ACE BASIN NERRS  NOT AVBL
FORT PULASKI     1500   78 76  190/  3/  4 1023.5F
SAPELO ISLAND    1500   84     110/  7     1023.0S

$$

ANZ835-935-AMZ111-154-330-350-352-354-370-450-454-472-261700-
...C-MAN AND BUOY OBSERVATIONS...

STATION/POSITION TIME  TEMP    WIND        PRES    WAVE   SWELL
                       AIR SEA DIR/SP/G            HT/PER HT/PER/DIR
                 (UTC) (F)     (DEG/KT/KT) (MB)    (FT/S) (FT/S/D)
BUOY 41004       1550   77 77  150/  4/  4 1023.1R   2/ 8   2/ 8
BUOY 41008       1550   77 77  120/  2/  4 1023.1F   2/ 8   2/120/ 8
FOLLY BEACH CMAN 1600   77     180/  8/  9 1023.5S
CAPERS NEARSHORE 1508   76 76  220/  8/ 10 1023.1F
FRIPP NEARSHORE  1508   77 77  190/  4/  6 1022.9R


STATION/POSITION TIME  TEMP    WIND        PRES    WAVE   SWELL
                       AIR SEA DIR/SP/G            HT/PER HT/PER/DIR
                 (UTC) (F)     (DEG/KT/KT) (MB)    (FT/S) (FT/S/D)
5E ST. MARYS GA  1521      79                N/A     2/ 8
FRYING PAN BUOY  1500   77 77  180/  6/  6 1023.0F
BUOY 41025       1550   73 70  240/  6/  8 1023.0F   2/ 8   2/130/ 8
CAPE LOOKOUT NC  1600   78     210/  8/ 10 1022.7F
BUOY 41002       1550   75 78   60/ 12/ 16 1022.8S   2/ 8   2/100/ 8
BUOY 41010       1520   76 78   60/ 12/ 14 1020.8F
ST AUGUSTINE FL  1600   76 79   80/  8/  9 1023.2F


$$




USA.gov is the U.S. government's official web portal to all federal, state and local government web resources and services.